Location: LDNL
(36.4545°S, 141.6685°E)
Time: 04:38:07
(UTC+11:00)

Vanguard 2 - Pass Details

Date: 11 August 2022
Orbit: 552 x 2934 km, 32.9° (Epoch: 06 October)

Event Time Altitude Azimuth Distance (km) Brightness Sun altitude
Rises 16:42:34 0° 312° (NW) 6,778 14.1 12.7°
Reaches altitude 10° 16:47:24 10° 316° (NW) 5,733 13.8 11.9°
Maximum altitude 17:03:32 49° 24° (NNE) 2,974 10.7 9.0°
Drops below altitude 10° 17:15:02 10° 93° (E) 4,195 10.7 6.9°
Sets 17:17:58 0° 99° (E) 4,901 11.0 6.4°
